Probability
10 10 10 8 7 7 9 10 9 8 8 7 6 6 7 8 7 6 7 11 13 14 15 15 14 12 11 10 9 9 8 8 7 7 8 8 8 8 7 6 6 6 6
10 11 11 9 7 7 8 8 8 7 7 7 6 5 6 5 5 5 7 9 12 13 14 14 14 13 12 11 11 11 11 9 8 8 8 9 9 9 8 7 7 6 6
11 12 11 9 7 7 7 7 6 5 5 5 5 5 4 3 4 5 6 8 11 12 12 11 12 12 12 11 12 12 12 10 10 9 10 10 10 10 11 10 8 7 5
11 11 10 9 8 8 7 6 5 4 4 5 6 6 4 3 3 4 6 8 11 11 9 8 10 11 11 10 11 13 13 11 11 11 11 11 10 10 11 10 8 6 4
9 9 8 8 8 7 6 5 4 4 4 5 5 5 5 4 4 4 5 7 10 11 9 7 9 11 10 8 9 13 14 13 12 12 11 10 9 8 8 7 5 3 2
8 8 8 9 8 7 5 4 4 4 4 4 4 4 4 4 5 5 5 6 9 9 8 7 7 8 8 6 6 11 14 14 12 13 12 9 7 6 6 5 3 1 0
6 7 8 9 9 7 5 5 5 5 4 4 4 3 3 3 3 4 5 5 6 7 6 6 7 7 7 4 4 8 13 13 13 13 12 8 5 4 4 4 2 0 0
4 5 6 8 8 8 7 6 5 5 5 4 5 4 4 3 2 2 3 2 4 6 6 5 6 8 8 7 6 8 10 11 12 14 12 8 4 3 3 3 1 1 0
2 3 4 6 8 9 8 6 5 5 5 5 6 6 5 3 3 3 3 3 5 7 6 3 4 8 11 11 10 8 9 11 12 14 14 10 6 4 3 3 3 2 1
4 4 5 6 8 9 9 8 6 5 7 8 8 7 5 4 4 5 6 6 8 8 6 4 6 10 14 14 11 8 9 11 12 14 14 12 9 6 4 3 3 3 3
9 9 9 8 8 9 9 10 8 8 10 11 11 9 7 5 6 8 7 6 7 8 8 8 10 12 13 13 11 9 10 11 11 12 13 12 10 8 6 5 4 3 3
12 12 12 12 12 10 10 11 11 12 12 12 12 11 9 7 7 8 7 5 5 6 8 10 11 12 13 13 12 10 10 10 9 10 11 10 9 9 8 7 5 3 3
11 12 13 13 13 12 12 13 13 12 10 10 10 10 9 7 6 7 6 6 5 5 7 9 11 12 13 14 13 11 10 8 8 8 8 8 7 8 9 9 6 4 4
8 10 11 11 11 11 12 13 12 9 9 9 8 7 6 6 6 7 7 7 6 5 7 9 12 15 16 16 14 12 11 9 7 6 5 5 5 6 6 6 5 4 4
7 9 11 11 10 10 11 11 9 8 9 10 9 7 6 6 7 8 8 8 7 7 9 11 13 17 18 15 13 13 12 9 7 4 2 3 3 3 3 2 2 3 3
7 9 10 10 10 11 12 10 8 8 9 11 11 9 8 7 7 8 8 8 9 10 11 12 14 17 17 13 11 13 13 9 6 3 2 1 1 1 1 1 0 1 2
10 10 10 10 10 11 12 11 9 8 8 9 10 10 9 9 9 9 9 9 10 12 12 12 12 15 16 13 10 12 12 9 6 3 2 1 0 0 0 0 0 0 1
17 16 14 12 11 11 11 11 10 9 8 8 8 9 8 9 11 11 10 10 10 11 11 11 10 12 13 10 9 11 11 9 7 4 2 1 0 0 0 0 0 0 0
23 22 18 16 15 14 12 11 10 9 9 9 9 10 8 9 12 12 11 12 11 11 11 12 11 11 9 6 7 9 9 9 8 5 3 1 0 0 0 0 0 0 0
25 23 19 17 18 17 13 11 10 9 9 9 10 11 9 9 10 11 11 11 11 10 10 10 10 9 6 4 5 6 7 8 8 7 5 3 2 1 1 0 0 0 0
26 25 21 19 18 16 12 9 8 8 8 9 10 10 9 7 7 7 6 7 9 8 6 5 6 6 6 5 4 5 6 7 7 7 6 5 3 3 2 1 1 0 0
28 27 25 22 18 12 7 4 4 5 6 8 9 9 8 6 5 4 3 3 4 4 2 1 3 4 5 6 5 4 4 5 6 5 5 4 3 3 2 2 2 1 0
31 29 27 24 17 10 5 2 1 2 4 7 8 8 6 5 5 5 3 1 2 2 1 1 2 2 3 5 5 4 3 3 4 4 4 3 3 3 2 1 1 1 0
30 29 26 23 17 10 4 1 0 1 3 5 6 6 6 5 4 3 3 2 2 2 1 1 1 1 2 3 3 3 2 2 2 4 4 4 3 3 2 1 1 0 0
27 25 23 21 17 11 4 1 0 1 2 5 6 5 5 5 2 1 1 1 1 1 1 0 0 1 1 1 1 1 1 0 1 2 3 4 4 4 3 2 1 0 0
23 21 19 18 16 12 5 1 1 2 3 4 5 4 3 2 1 0 0 1 1 1 0 0 1 1 1 0 0 0 0 0 0 0 2 4 5 5 4 3 2 1 0
Wind_Speed
0 1 0 0 1 1 1 2 1 1 2 2 2 3 3 2 2 2 3 8 8 8 9 9 10 10 11 11 11 11 11 11 10 9 8 8 9 9 9 9 8 8 7
1 1 0 0 0 0 1 1 1 1 1 1 2 2 2 2 2 2 3 5 8 8 8 8 8 9 10 11 11 10 10 11 10 9 9 9 9 9 10 10 10 9 8
1 0 0 1 0 0 0 0 1 1 1 2 2 2 2 2 2 2 3 3 4 7 8 8 9 9 10 10 10 10 10 10 10 9 9 9 9 9 9 9 10 9 9
1 1 0 1 0 0 0 0 0 1 1 1 2 2 2 2 4 3 3 3 3 4 6 8 9 9 10 10 10 10 9 9 10 10 10 10 9 8 8 9 9 9 9
1 1 0 1 1 0 0 0 0 1 1 2 2 2 2 3 3 4 4 4 4 4 4 6 8 9 9 10 10 10 10 9 9 9 10 10 10 9 8 8 9 9 9
1 1 0 0 1 0 1 1 1 1 2 2 3 2 2 3 3 3 3 3 3 4 4 5 5 6 9 8 8 8 9 9 8 8 9 9 9 9 8 8 8 8 8
1 1 1 0 1 1 0 1 1 2 2 1 1 2 2 2 2 2 2 2 2 3 3 4 4 3 4 8 8 8 8 8 8 8 8 8 8 8 8 8 8 8 8
2 1 1 1 0 0 0 1 1 1 2 1 1 1 1 1 1 2 2 2 2 2 2 3 3 4 4 4 5 8 8 8 8 8 8 8 8 8 8 8 8 7 8
1 2 1 1 1 0 0 1 1 1 2 2 1 1 1 1 1 1 1 1 1 1 1 2 3 3 4 4 4 7 8 8 9 9 9 8 8 8 8 8 9 9 8
1 1 1 1 1 1 0 1 0 1 2 2 2 1 1 1 1 1 1 1 1 2 2 2 2 3 4 3 4 7 9 8 8 9 9 8 8 8 8 8 9 9 9
1 2 2 2 1 1 1 1 1 1 1 2 2 2 2 1 2 1 2 2 2 1 1 2 1 2 3 4 4 6 8 9 9 8 7 8 8 8 9 9 9 10 10
1 2 2 2 1 1 1 1 1 2 2 2 2 2 2 1 2 1 2 2 2 1 1 1 2 2 3 3 5 7 8 9 9 8 8 7 7 8 9 9 9 9 10
1 2 2 2 2 2 1 2 1 2 2 2 2 2 2 2 2 1 1 2 2 2 1 1 1 1 2 3 4 8 8 9 9 9 8 8 7 7 7 8 8 9 9
2 2 1 1 1 2 2 2 1 1 1 2 3 3 3 3 2 2 1 1 2 2 1 1 1 0 1 2 5 8 6 8 8 8 8 8 7 7 6 7 7 8 8
1 1 1 1 1 1 2 2 1 2 2 2 2 2 2 3 3 2 2 1 1 2 2 1 0 0 0 1 4 4 5 7 8 9 9 8 7 7 7 7 7 7 8
2 1 1 1 1 1 2 2 2 2 2 2 2 3 3 3 3 3 2 2 2 2 2 1 1 0 0 0 2 2 3 6 7 8 8 8 7 7 7 6 6 6 6
2 2 2 2 1 1 1 2 2 2 2 2 2 2 3 3 3 3 3 2 2 2 2 2 1 0 0 1 1 1 2 3 4 7 8 8 8 8 7 7 6 6 6
1 1 2 2 2 2 2 2 3 3 3 2 2 3 3 3 3 3 3 3 2 2 1 2 1 1 1 1 2 2 1 2 2 5 7 7 8 8 8 7 7 6 6
1 2 2 2 3 3 3 3 3 3 3 3 2 2 3 3 3 3 3 3 3 3 1 1 2 1 1 0 0 1 1 0 1 2 4 6 7 8 8 8 8 7 6
1 2 2 2 2 2 3 4 3 3 3 3 3 2 2 3 3 3 3 3 3 3 2 1 1 1 1 0 0 1 1 1 1 1 1 3 5 7 8 8 8 8 7
1 1 2 2 3 2 4 4 4 4 3 3 3 3 3 3 4 3 3 3 4 3 2 2 2 1 1 0 1 1 1 1 2 2 1 2 2 3 4 6 8 9 8
1 2 2 2 3 4 6 7 5 4 3 2 3 3 3 2 3 3 4 4 4 3 3 2 2 2 2 1 1 1 1 1 2 1 1 2 1 2 3 4 7 9 9
1 1 2 2 2 3 5 6 7 4 3 2 2 2 3 3 3 3 3 3 3 4 4 3 3 3 2 2 2 2 2 2 2 2 1 2 1 1 2 3 7 9 9
1 1 1 1 1 2 4 5 6 3 3 3 2 2 2 2 3 4 3 3 3 3 3 2 2 3 3 2 1 2 3 2 2 2 2 2 2 1 1 1 5 8 9
1 1 0 0 1 1 2 3 4 3 2 3 2 1 1 1 3 4 3 3 4 4 4 3 3 3 4 4 3 1 1 2 3 2 2 2 2 2 1 1 2 6 8
1 1 1 1 1 0 1 2 3 2 2 3 2 1 2 2 3 4 3 3 4 4 5 4 4 3 4 4 4 3 2 2 2 2 1 1 1 1 1 1 1 2 3
Wind_Direction
110 89 121 77 257 209 168 177 192 190 215 230 231 212 223 224 221 186 157 169 175 181 187 197 202 207 207 205 206 208 208 205 202 200 201 204 204 200 199 200 200 200 202
62 60 106 112 289 204 157 170 197 202 213 222 236 240 242 233 219 196 169 174 181 184 191 197 203 206 205 203 204 206 205 203 202 201 203 206 205 203 202 204 204 204 203
35 16 210 148 130 280 133 152 224 230 222 227 225 234 236 237 230 200 187 179 186 193 198 204 206 204 206 206 206 206 205 202 200 197 200 203 203 203 202 205 205 205 204
6 341 32 74 233 240 84 162 208 265 267 253 236 234 228 222 224 207 200 193 191 193 197 205 207 206 208 210 207 205 204 201 199 198 200 201 202 204 202 204 206 206 207
358 341 42 69 327 127 120 288 65 264 262 258 248 232 238 228 221 217 205 198 189 186 184 190 198 202 206 210 209 207 205 202 198 201 203 202 203 205 204 203 205 205 206
348 357 32 319 319 55 38 13 351 279 275 257 265 242 246 237 219 220 217 201 187 191 183 184 192 200 201 203 205 203 201 198 195 196 197 198 199 200 199 201 202 201 201
357 8 356 333 334 69 64 318 292 279 278 280 285 278 261 251 212 207 225 195 183 177 174 178 189 185 192 199 201 198 195 193 194 191 190 189 190 192 192 197 198 199 200
334 349 20 329 358 36 49 316 315 301 281 265 260 271 266 268 276 241 216 196 191 174 185 192 184 183 186 176 186 190 192 193 192 190 189 189 192 192 195 203 200 200 202
339 352 336 334 340 319 123 272 300 282 284 279 251 248 250 243 285 274 248 213 187 191 201 195 187 192 191 175 176 185 185 192 195 195 194 193 193 194 198 203 204 205 206
360 2 336 346 343 348 11 287 286 299 294 305 298 271 286 330 256 283 288 245 219 212 214 221 205 192 186 175 167 166 179 186 191 197 196 196 198 200 204 208 210 211 209
15 22 24 8 12 351 352 327 339 321 318 312 307 302 301 301 281 259 275 278 260 237 215 222 210 196 185 176 171 173 179 186 192 191 193 200 203 205 210 215 217 216 211
51 30 38 16 7 356 349 347 354 339 327 319 320 314 306 291 296 278 275 274 269 268 270 237 217 200 177 169 179 173 182 188 190 190 195 198 205 211 213 215 218 218 217
53 43 38 24 358 347 345 348 355 354 347 334 329 326 318 304 297 289 285 287 289 274 251 256 230 204 185 168 172 174 188 189 187 189 195 200 203 209 215 220 220 220 222
37 69 57 15 355 342 345 351 354 348 353 330 329 337 318 316 308 299 283 275 292 281 263 261 264 202 160 161 168 178 180 180 185 188 195 202 205 211 217 223 224 222 222
8 68 56 17 354 339 341 340 342 333 341 329 325 331 322 314 313 316 306 289 272 280 285 272 301 342 67 109 165 180 173 181 189 193 199 202 206 211 217 222 223 220 222
2 12 22 360 332 336 336 329 322 329 321 327 326 341 334 324 319 319 311 304 286 267 276 287 282 270 73 280 185 186 177 185 191 190 195 199 203 204 208 211 211 214 218
12 357 342 330 330 336 328 322 317 315 310 324 326 332 322 318 324 315 322 322 322 317 295 296 309 291 215 237 210 220 194 184 178 189 197 202 202 200 202 203 206 209 210
3 4 359 349 342 346 338 323 319 324 313 312 316 322 320 325 328 328 329 320 321 304 275 300 323 304 256 205 201 226 219 192 181 197 202 203 203 203 202 200 200 203 204
16 16 12 360 351 351 342 330 325 316 319 316 314 318 319 330 333 335 327 319 318 318 327 289 291 312 302 269 186 288 307 42 249 191 201 205 203 202 202 202 199 197 198
38 13 3 354 344 348 343 337 328 313 320 327 334 337 338 340 339 325 319 325 321 321 312 296 279 285 276 285 119 293 311 298 279 278 233 209 200 204 205 203 199 198 200
3 2 3 5 351 358 2 354 330 314 319 332 342 345 357 25 26 360 343 345 332 319 312 305 301 301 290 310 275 263 280 286 270 273 272 244 196 200 206 208 204 198 196
4 12 9 12 1 12 20 14 355 330 334 341 336 342 339 29 23 8 358 353 346 319 316 306 295 293 294 281 283 271 275 272 285 282 283 291 253 213 216 203 195 189 189
358 15 16 18 23 29 19 8 358 341 336 328 322 323 322 358 10 357 341 326 324 321 305 277 285 285 284 289 280 284 282 264 263 266 260 272 273 248 247 213 184 182 189
350 17 357 8 353 21 17 5 351 322 313 317 325 319 327 348 354 354 331 335 326 315 294 280 269 278 285 294 265 258 268 272 266 256 227 243 259 247 258 211 188 181 186
314 312 315 326 335 32 18 1 356 326 325 318 308 337 350 10 8 349 329 325 324 320 322 324 309 287 285 278 268 263 260 264 274 257 232 225 244 258 239 224 198 188 188
288 296 321 325 305 10 79 9 345 322 326 329 330 344 36 22 360 351 333 318 310 315 322 318 310 285 267 265 257 227 229 242 267 274 245 240 244 250 263 236 185 195 201